User: anonymous   Login
Location: Valdosta
(30.8330°N, 83.2790°W)
Time: 09:28:24
(UTC-04:00)
Language:

Uribyol 2 - Orbit

View from above orbital plane
View from above orbital plane
View from above satellite
View from above satellite

Ground track
Ground track

The orbit data is extracted from the following two-line orbital elements,

1 22828U 93061F   16207.95403602  .00000018  00000-0  24317-4 0  9996
2 22828  98.7473 163.5056 0010187 158.4683 201.6929 14.30597822159296
Epoch (UTC): 25 July 2016 22:53:48
Eccentricity: 0.0010187
inclination: 98.7473°
perigee height: 782 km
apogee height: 797 km
right ascension of ascending node: 163.5056°
argument of perigee: 158.4683°
revolutions per day: 14.30597822
mean anomaly at epoch: 201.6929°
orbit number at epoch: 15929

The dashed part of the orbit path shows where the satellite is in the earth's shadow,  

DLR